STARLINK-36244, 68145

Orbit data source: Space-Track

STARLINK-36244, 68145 is a payload satellite owned by SpaceX/Seattle (US) in SSO that was launched on Fri, 13 Mar 2026 UTC via an FALCON 9 launch vehicle from the Air Force Western Test Range (AFWTR). Payload-class satellites include a variety of spacecraft equipped with specific instruments for various scientific and technological missions. These include communications satellites like Starlink; space stations such as the ISS; scientific satellites like the Hubble; Earth observation satellites from companies like Planet Labs, Umbra, and HawkEye 360; GPS; miniature CubeSats for education and research; and military/defense satellites.

Loading next visibility...
Identifier
68145, 2026-049D
Orbit
SSO
Country
Flag of USUS
Related business
Manufacturer
SpaceX/Seattle
Mission
Operational spacecraft
Bus & Motor
STARLINK V2MO, Unknown motor
Mass
575 kg wet, ~530 kg dry
Launch date (UTC)
2026-03-13 (3 months ago)
Launch vehicle
FALCON 9
Launch site
Air Force Western Test Range (AFWTR)
Object type
Payload
Rocket body
Debris
Shape & HBR
Unknown shape, 17.7 m
Radar Cross Section
Large (>1 m²)

Expand to show TLE details & history
Last TLE update: 21 hours ago

TLE from 21 hours ago
0 STARLINK-36244
1 68145U 26049D   26170.98233597  .00010536  00000-0  32816-3 0  9995
2 68145  97.2849 192.2698 0001350  92.5359 267.6038 15.33451445 15322
Epoch: 2026-06-19T23:34Z
TLE epoch observation values (Epoch: 2026-06-19T23:34:33.827Z)
Latitude
-0.00007°
Longitude
-69.57464°
Altitude
468.675 km
Speed
7.632 km/s
True Right ascension
12h 49m 04s
True Declination
0° 00' 00"
Sunlit
Object was in daylight at epoch
Visualization orbit readout
Latitude
Unknown
Longitude
Unknown
Altitude
Unknown
Speed
Unknown
Apparent Right ascension
Unknown
Apparent Declination
Unknown
Sunlit
N/A
Visualization observer readout
Local Sidereal Time
07:19:27
Azimuth
Unknown
Elevation
Unknown
Doppler factor
Unknown
Orbital elements
Apogee altitude
463.39 km
Perigee altitude
461.543 km
Semi-major axis
6,840.604 km
Eccentricity
0.00014
Inclination
97.2849°
RAAN
192.2698°
Arg. of periapsis
92.5359°
True anomaly
267.58834°
Mean anomaly
267.6038°
Eccentric anomaly
267.59607°
Mean motion
3.8362 °/min
Orbital period
93.84 mins
BSTAR
0.00032816
Loading maneuver chart data...
Computing Atmospheric mass density...
Loading historical data...
Loading historical data...
Loading historical data...
Loading historical data...
Loading historical data...
Loading historical data...
Loading historical data...

Documentation

Showing up to 5 results
|